Bergman, AR

6:20 PM CST on February 06, 2016 (GMT -0600)
Boone County

Weather History for KHRO - December, 2014

Change the Weather History Date:

Thursday, December 18, 2014

  Actual Average Record
Temperature  
Mean Temperature 36 °F 37 °F  
Max Temperature 40 °F 47 °F 72 °F (1962)
Min Temperature 32 °F 28 °F 0 °F (1901)
Degree Days  
Heating Degree Days 29 28  
Month to date heating degree days 425 462  
Since 1 July heating degree days 1279 1226  
Cooling Degree Days 0 0  
Month to date cooling degree days 0 0  
Year to date cooling degree days 1354 1416  
Moisture  
Dew Point 35 °F    
Average Humidity 96    
Maximum Humidity 100    
Minimum Humidity 92    
Precipitation  
Precipitation T in 0.09 in 1.14 in (1899)
Month to date precipitation 1.96 1.96  
Year to date precipitation 40.91 42.90  
Snow  
Snow 0.00 in 0.00 in 1.50 in (1945)
Month to date snowfall T 0.0  
Since 1 July snowfall 0.6 0.5  
Snow Depth 0.00 in    
Sea Level Pressure  
Sea Level Pressure 30.20 in    
Wind  
Wind Speed 6 mph (ESE)    
Max Wind Speed 13 mph    
Max Gust Speed 17 mph    
Visibility 7 miles    
Events      
T = Trace of Precipitation, MM = Missing Value Source: NWS Daily Summary

Daily Weather History Graph

Daily Weather History Graph

Search for Another Location

Airport or City:

Trip Planner

Search our weather history database for the weather conditions in past years. The results will help you decide how hot, cold, wet, or windy it might be!

Date:

Astronomy

Dec. 18, 2014 Rise Set
Actual Time 7:18 AM CST 5:00 PM CST
Civil Twilight 6:49 AM CST 5:28 PM CST
Nautical Twilight 6:17 AM CST 6:01 PM CST
Astronomical Twilight 5:46 AM CST 6:32 PM CST
Moon 3:37 AM CST (12/18) 2:36 PM CST (12/18)
Length of Visible Light 10h 39m
Length of Day
9h 41m
Waning Crescent, 13% of the Moon is Illuminated
Dec 18
Waning Crescent
Dec 21
New
Dec 28
First Quarter
Jan 4
Full
Jan 13
Last Quarter

Hourly Weather History & Observations

Time (CST) Temp. Windchill Dew Point Humidity Pressure Visibility Wind Dir Wind Speed Gust Speed Precip Events Conditions
12:01 AM 33.1 °F 24.9 °F 32.0 °F 96% 30.19 in 8.0 mi SE 10.4 mph - 0.00 in   Overcast
12:17 AM 33.1 °F 23.9 °F 32.0 °F 96% 30.19 in 10.0 mi SE 12.7 mph - 0.00 in   Overcast
12:53 AM 33.1 °F 25.5 °F 32.0 °F 96% 30.22 in 10.0 mi SE 9.2 mph - 0.00 in   Overcast
1:22 AM 33.1 °F 24.9 °F 32.0 °F 96% 30.18 in 10.0 mi ESE 10.4 mph - N/A   Overcast
1:32 AM 33.1 °F 24.4 °F 32.0 °F 96% 30.18 in 10.0 mi SE 11.5 mph - N/A   Overcast
1:53 AM 33.1 °F 24.4 °F 32.0 °F 96% 30.21 in 10.0 mi SE 11.5 mph - N/A   Overcast
2:53 AM 33.1 °F 24.9 °F 32.0 °F 96% 30.19 in 8.0 mi ESE 10.4 mph - N/A   Overcast
3:24 AM 33.1 °F 25.5 °F 33.1 °F 100% 30.15 in 5.0 mi ESE 9.2 mph - N/A   Overcast
3:53 AM 33.1 °F 26.1 °F 33.1 °F 100% 30.18 in 7.0 mi ESE 8.1 mph - N/A   Overcast
4:29 AM 33.1 °F 27.7 °F 33.1 °F 100% 30.16 in 8.0 mi ESE 5.8 mph - N/A   Overcast
4:53 AM 33.1 °F 27.7 °F 33.1 °F 100% 30.19 in 7.0 mi ESE 5.8 mph - N/A   Overcast
5:42 AM 33.1 °F 26.1 °F 33.1 °F 100% 30.16 in 6.0 mi ESE 8.1 mph - N/A   Overcast
5:53 AM 33.8 °F 27.7 °F 33.8 °F 100% 30.16 in 5.0 mi ESE 6.9 mph - N/A   Overcast
6:53 AM 33.1 °F 27.7 °F 33.1 °F 100% 30.21 in 3.0 mi ESE 5.8 mph - N/A   Overcast
7:35 AM 33.1 °F 27.7 °F 33.1 °F 100% 30.19 in 2.5 mi SE 5.8 mph - N/A   Overcast
7:53 AM 33.1 °F 26.1 °F 33.1 °F 100% 30.22 in 1.5 mi SE 8.1 mph - N/A   Overcast
8:38 AM 34.0 °F 28.0 °F 34.0 °F 100% 30.19 in 2.0 mi SE 6.9 mph - N/A   Overcast
8:53 AM 34.0 °F 27.2 °F 34.0 °F 100% 30.23 in 3.0 mi SE 8.1 mph - N/A   Overcast
9:53 AM 36.0 °F 29.0 °F 35.1 °F 97% 30.22 in 9.0 mi SSE 9.2 mph - N/A   Overcast
10:10 AM 36.0 °F 29.0 °F 35.1 °F 97% 30.20 in 10.0 mi SSE 9.2 mph - N/A   Overcast
10:53 AM 37.0 °F 31.6 °F 36.0 °F 96% 30.22 in 10.0 mi SSE 6.9 mph - N/A   Overcast
11:53 AM 37.9 °F 33.5 °F 37.0 °F 97% 30.20 in 10.0 mi SSE 5.8 mph - N/A   Overcast
12:53 PM 37.9 °F 33.5 °F 37.0 °F 97% 30.18 in 10.0 mi SE 5.8 mph - N/A   Overcast
1:53 PM 37.9 °F 35.5 °F 37.0 °F 97% 30.16 in 10.0 mi ESE 3.5 mph - N/A   Overcast
2:53 PM 39.0 °F 36.8 °F 37.0 °F 93% 30.16 in 10.0 mi ESE 3.5 mph - N/A   Overcast
3:53 PM 39.0 °F 35.7 °F 37.0 °F 93% 30.16 in 10.0 mi East 4.6 mph - N/A   Overcast
4:53 PM 39.0 °F - 37.9 °F 96% 30.18 in 7.0 mi Calm Calm - N/A   Overcast
5:53 PM 39.0 °F - 37.9 °F 96% 30.19 in 7.0 mi Calm Calm - N/A   Overcast
6:39 PM 37.9 °F 35.5 °F 37.0 °F 97% 30.18 in 7.0 mi NE 3.5 mph - N/A   Overcast
6:53 PM 37.9 °F 35.5 °F 37.0 °F 97% 30.22 in 6.0 mi NE 3.5 mph - N/A   Overcast
7:53 PM 37.9 °F 35.5 °F 37.0 °F 97% 30.22 in 3.0 mi East 3.5 mph - N/A   Overcast
8:53 PM 37.9 °F 35.5 °F 37.0 °F 97% 30.23 in 6.0 mi East 3.5 mph - N/A   Overcast
9:53 PM 37.9 °F 35.5 °F 37.0 °F 97% 30.24 in 5.0 mi ESE 3.5 mph - N/A   Overcast
10:53 PM 37.0 °F 33.3 °F 37.0 °F 100% 30.25 in 5.0 mi SSE 4.6 mph - N/A   Overcast
11:53 PM 37.4 °F 33.8 °F 37.4 °F 100% 30.22 in 4.0 mi ESE 4.6 mph - N/A   Overcast